Date,TemperatureHighF,TemperatureAvgF,TemperatureLowF,DewpointHighF,DewpointAvgF,DewpointLowF,HumidityHigh,HumidityAvg,HumidityLow,PressureMaxIn,PressureMinIn,WindSpeedMaxMPH,WindSpeedAvgMPH,GustSpeedMaxMPH,PrecipitationSumIn
2013-1-1,40.4,36.8,27.3,30.7,27.0,15.3,80,67,57,30.07,29.88,12,2,14,0.00
2013-1-2,32.9,27.3,21.9,17.7,15.4,12.7,72,60,50,30.24,30.04,13,2,17,0.00
2013-1-3,33.7,27.6,22.4,21.0,16.9,15.0,77,64,49,30.25,30.13,9,2,11,0.00
2013-1-4,37.7,32.5,26.3,24.0,22.2,19.5,76,66,55,30.15,30.02,18,3,18,0.00
2013-1-5,42.2,33.8,27.4,24.8,22.8,19.5,82,65,47,30.36,30.08,11,2,15,0.00
2013-1-6,47.7,38.6,30.9,34.4,28.8,23.8,92,69,48,30.27,30.01,12,2,12,0.00
2013-1-7,46.2,37.2,25.2,31.5,26.5,21.9,90,66,45,30.44,30.10,14,1,15,0.00
2013-1-8,50.3,34.1,23.3,35.3,27.8,21.1,94,79,50,30.47,30.38,10,1,11,0.00
2013-1-9,48.6,37.8,25.1,39.6,32.4,23.4,94,82,64,30.44,30.18,11,1,11,0.00
2013-1-10,49.4,41.2,30.5,33.2,27.6,24.9,84,59,41,30.58,30.30,12,2,14,0.00
2013-1-11,45.9,38.9,30.3,43.2,33.9,25.6,95,82,66,30.57,30.11,4,0,5,0.57
2013-1-12,48.2,44.7,42.5,44.8,43.0,41.1,96,93,86,30.20,30.10,5,0,6,0.01
2013-1-13,48.5,45.7,42.7,47.4,44.5,41.6,96,96,95,30.18,30.02,5,1,5,0.01
2013-1-14,56.1,49.5,38.6,52.0,44.3,33.0,97,83,57,30.32,29.93,10,2,13,0.07
2013-1-15,38.7,37.1,34.0,36.1,32.1,29.2,93,82,73,30.38,30.24,9,1,10,0.15
2013-1-16,36.2,33.8,32.2,34.0,32.2,30.4,95,94,90,30.25,29.85,10,1,13,0.77
2013-1-17,44.2,38.7,35.0,34.3,30.7,25.7,92,73,60,30.13,29.96,12,2,15,0.00
2013-1-18,34.9,28.7,20.5,26.6,15.1,6.1,84,58,35,30.53,30.03,18,3,21,0.00
2013-1-19,52.4,38.2,20.7,32.1,26.1,14.5,80,63,43,30.46,29.96,14,4,18,0.00
2013-1-20,55.1,42.4,30.0,33.2,24.5,10.7,75,52,22,30.09,29.75,24,5,27,0.00
2013-1-21,31.9,27.4,19.5,22.2,14.2,9.7,81,58,44,30.14,29.90,18,2,20,0.00
2013-1-22,25.5,18.4,12.2,10.8,0.2,-5.1,54,45,32,30.30,29.91,21,5,23,0.00
2013-1-23,19.6,12.5,5.5,5.0,-0.1,-5.2,87,58,39,30.34,30.24,13,2,17,0.00
2013-1-24,24.7,15.8,6.5,6.9,2.7,-3.6,88,59,30,30.50,30.19,21,4,26,0.00
2013-1-25,23.7,16.2,8.1,15.3,5.3,-2.0,89,63,44,30.51,30.13,12,1,13,0.00
2013-1-26,28.6,19.6,7.1,12.6,8.9,4.0,92,65,42,30.45,30.11,17,3,17,0.00
2013-1-27,35.2,22.2,9.0,15.2,11.2,5.2,85,64,41,30.61,30.45,12,2,14,0.00
2013-1-28,34.6,29.1,17.6,32.8,25.6,12.2,94,87,75,30.56,30.06,9,1,10,0.10
2013-1-29,53.4,42.6,33.6,45.4,39.0,32.1,95,87,71,30.18,30.05,5,1,5,0.00
2013-1-30,67.0,52.9,40.8,60.0,49.9,38.9,96,90,75,30.09,29.34,20,3,22,0.12
2013-1-31,62.4,44.7,28.3,59.8,31.6,12.2,93,62,35,29.85,29.06,30,9,32,0.71
2013-2-1,31.1,27.2,21.9,16.3,10.6,5.2,64,50,36,30.30,29.84,20,4,23,0.00
2013-2-2,30.4,23.5,15.8,21.0,10.3,5.8,89,58,38,30.35,30.09,12,2,14,0.00
2013-2-3,31.7,25.4,20.2,23.2,20.2,16.4,92,81,63,30.09,29.84,9,1,11,0.01
2013-2-4,29.7,25.1,19.1,22.2,12.5,8.9,83,59,43,30.06,29.88,17,3,21,0.00
2013-2-5,32.2,28.8,23.9,28.2,25.2,19.5,92,86,81,30.00,29.91,5,0,6,0.00
2013-2-6,39.7,31.6,24.0,28.3,22.6,13.6,94,71,48,30.39,29.96,16,1,16,0.02
2013-2-7,34.2,27.3,18.2,23.5,16.0,11.1,84,63,46,30.54,30.34,8,1,9,0.00
2013-2-8,36.7,32.7,30.1,32.3,29.6,23.5,94,88,72,30.34,29.70,17,4,17,0.10
2013-2-9,34.5,28.1,20.0,30.2,17.9,6.5,95,67,43,30.42,29.81,24,4,24,0.00
2013-2-10,41.4,26.2,10.4,21.4,11.9,5.2,83,57,28,30.54,30.37,9,1,9,0.10
2013-2-11,47.1,36.4,27.7,45.9,33.6,20.9,96,90,73,30.37,29.69,9,0,11,0.26
2013-2-12,46.1,39.5,28.7,39.0,26.8,22.9,95,61,46,30.01,29.79,18,3,20,0.00
2013-2-13,44.4,33.5,21.2,31.1,25.7,18.8,93,75,49,30.00,29.70,8,1,8,0.00
2013-2-14,47.9,36.2,27.4,33.6,29.7,24.9,94,79,47,30.04,29.75,9,1,10,0.17
2013-2-15,56.5,41.6,27.8,38.6,31.9,25.5,94,71,43,30.06,29.94,12,2,15,0.01
2013-2-16,40.0,34.8,29.6,33.6,25.7,12.8,93,70,49,30.01,29.79,13,3,16,0.04
2013-2-17,32.0,26.9,19.1,13.2,6.4,0.1,50,41,32,30.10,29.75,28,8,36,0.00
2013-2-18,36.2,25.5,16.6,16.5,7.6,0.7,61,47,33,30.34,30.10,24,4,26,0.00
2013-2-19,47.2,35.2,20.0,41.6,28.5,14.0,93,77,52,30.25,29.73,23,2,23,0.25
2013-2-20,36.2,29.7,24.4,27.8,14.2,10.1,74,52,42,30.07,29.80,22,6,28,0.00
2013-2-21,36.1,28.2,23.4,16.7,14.0,10.9,67,55,43,30.34,30.05,26,5,26,0.00
2013-2-22,37.6,30.2,21.3,28.3,21.5,14.0,81,70,56,30.46,30.30,8,1,9,0.00
2013-2-23,44.7,38.7,33.0,43.4,36.9,28.2,95,93,81,30.31,29.84,12,1,13,0.25
2013-2-24,47.6,38.2,31.7,40.2,31.3,21.9,95,77,57,30.04,29.79,17,3,23,0.01
2013-2-25,44.7,35.7,28.0,29.8,26.0,22.1,87,69,51,30.28,30.04,14,2,14,0.00
2013-2-26,45.2,35.1,23.6,35.6,29.5,21.5,94,81,60,30.31,29.87,20,3,20,0.25
2013-2-27,52.0,43.1,37.4,46.2,39.6,35.6,96,88,70,29.89,29.53,16,3,19,0.45
2013-2-28,48.2,41.7,35.8,37.8,33.4,27.2,93,73,50,29.67,29.59,11,2,13,0.00
2013-3-1,46.7,38.5,31.1,31.5,28.8,25.8,90,69,50,29.83,29.65,16,4,19,0.00
2013-3-2,39.9,34.7,29.6,26.2,23.4,20.4,70,63,53,29.84,29.75,16,4,17,0.00
2013-3-3,37.3,31.8,27.6,20.9,19.4,16.8,68,60,50,29.84,29.74,18,4,21,0.00
2013-3-4,42.3,34.0,27.9,22.1,19.6,16.8,66,56,42,29.98,29.83,18,5,23,0.00
2013-3-5,50.6,38.0,29.0,28.4,24.7,21.4,85,60,39,30.07,29.97,12,2,14,0.00
2013-3-6,41.5,37.9,29.8,35.8,31.8,25.3,87,79,67,29.99,29.83,26,6,34,0.03
2013-3-7,43.5,37.8,32.8,34.6,29.8,25.8,90,73,57,30.13,29.96,20,5,22,0.08
2013-3-8,42.3,34.9,29.9,35.3,30.4,26.5,93,84,64,30.24,30.06,15,3,19,0.26
2013-3-9,60.3,42.4,30.2,30.5,23.6,16.6,77,51,19,30.34,30.22,13,2,14,0.00
2013-3-10,56.9,39.4,23.9,38.4,30.2,21.1,91,72,42,30.42,30.30,11,2,12,0.00
2013-3-11,59.5,45.5,32.1,47.5,40.0,30.0,94,82,53,30.36,30.09,12,2,12,0.00
2013-3-12,58.0,52.7,44.8,55.8,48.9,38.1,94,87,75,30.09,29.67,18,5,22,0.76
2013-3-13,50.4,42.0,35.1,38.4,30.0,23.9,81,63,39,29.94,29.84,18,3,18,0.01
2013-3-14,42.2,34.9,29.4,25.7,15.1,9.4,66,45,29,30.02,29.90,22,5,25,0.00
2013-3-15,49.8,39.0,25.5,32.0,21.4,11.7,68,49,41,30.04,29.74,14,3,18,0.00
2013-3-16,45.2,35.2,32.0,31.3,28.5,23.0,93,77,57,29.95,29.79,9,1,13,0.02
2013-3-17,39.2,32.9,28.1,31.0,22.3,17.0,91,66,44,30.34,29.95,14,2,16,0.14
2013-3-18,36.8,31.2,24.7,33.5,23.0,13.2,93,72,51,30.44,29.99,15,2,17,0.30
2013-3-19,50.3,39.6,34.3,39.7,32.1,16.4,95,77,39,29.99,29.72,23,4,24,0.59
2013-3-20,46.7,37.9,30.2,25.3,19.3,16.5,72,48,32,29.94,29.81,18,4,18,0.00
2013-3-21,39.2,33.7,28.2,28.1,19.3,12.3,87,57,35,29.87,29.68,12,3,15,0.00
2013-3-22,42.7,33.7,26.9,22.2,19.0,12.5,72,55,37,29.94,29.79,21,3,21,0.00
2013-3-23,47.3,38.1,29.5,23.0,20.4,18.3,68,50,35,29.98,29.88,18,4,21,0.00
2013-3-24,48.8,39.0,27.5,27.5,21.5,18.7,70,50,34,30.00,29.72,15,2,18,0.00
2013-3-25,38.7,35.8,32.8,34.8,31.1,26.1,93,83,64,29.73,29.50,14,2,16,0.26
2013-3-26,52.2,42.3,35.0,34.9,31.1,23.8,92,67,35,29.91,29.64,14,3,16,0.00
2013-3-27,52.4,42.6,34.9,32.0,28.4,21.9,74,59,33,30.03,29.91,19,4,24,0.00
2013-3-28,49.9,43.1,34.6,32.3,29.3,27.1,77,59,44,30.15,30.01,17,4,18,0.00
2013-3-29,55.7,44.0,28.9,31.7,28.7,25.2,87,57,35,30.20,30.10,15,2,17,0.00
2013-3-30,60.0,45.8,29.5,32.3,26.4,20.2,90,51,24,30.22,30.10,12,2,13,0.00
2013-3-31,57.4,44.8,30.4,43.9,34.8,25.5,95,71,38,30.15,29.72,15,3,19,0.24
2013-4-1,62.7,48.2,36.4,47.9,36.4,13.1,96,68,33,29.95,29.66,19,4,23,0.00
2013-4-2,45.1,36.9,29.8,16.7,13.4,10.5,56,38,26,30.13,29.95,20,3,22,0.00
2013-4-3,46.1,37.6,27.1,17.9,13.8,9.1,59,38,25,30.35,30.13,18,4,20,0.00
2013-4-4,54.6,40.4,25.1,27.0,19.9,11.9,72,45,28,30.44,30.11,12,2,15,0.00
2013-4-5,64.2,49.1,39.0,34.3,26.3,17.6,80,46,18,30.11,29.74,18,3,22,0.00
2013-4-6,54.0,42.7,33.7,28.3,18.5,11.3,69,40,19,30.34,30.03,16,3,20,0.00
2013-4-7,64.3,49.7,34.9,44.3,35.4,27.8,83,61,33,30.33,30.00,20,5,20,0.00
2013-4-8,78.2,61.0,41.7,50.3,45.1,38.8,92,60,31,30.09,29.96,11,2,13,0.00
2013-4-9,84.5,70.2,57.8,53.5,48.1,36.9,80,50,20,29.98,29.88,21,3,23,0.00
2013-4-10,86.9,67.8,56.6,60.7,54.1,49.4,95,64,36,29.93,29.76,29,2,32,0.87
2013-4-11,63.3,57.1,47.0,59.7,52.8,41.7,96,86,70,30.01,29.74,14,2,15,0.05
2013-4-12,47.6,43.7,41.7,42.8,41.1,39.5,95,91,77,29.99,29.71,15,4,21,0.78
2013-4-13,59.5,48.5,37.3,45.4,38.4,34.0,96,71,41,30.00,29.76,11,2,15,0.00
2013-4-14,61.4,50.2,36.7,41.3,34.4,26.0,93,59,30,30.22,29.99,16,2,20,0.00
2013-4-15,61.8,51.5,41.6,43.0,35.7,30.5,80,55,40,30.38,30.22,13,2,14,0.00
2013-4-16,73.6,59.3,45.1,58.0,49.8,39.9,89,72,53,30.38,30.12,14,4,19,0.00
2013-4-17,74.3,62.2,49.1,55.7,44.4,29.6,91,57,23,30.29,30.10,10,2,12,0.00
2013-4-18,60.2,53.1,43.0,54.4,47.0,40.0,92,80,62,30.33,30.08,11,2,14,0.01
2013-4-19,79.5,67.0,56.1,66.0,60.9,53.3,93,82,60,30.09,29.62,18,6,22,0.23
2013-4-20,58.2,51.5,45.7,53.3,34.8,25.1,90,56,32,30.33,29.68,18,4,21,0.18
2013-4-21,56.3,44.9,32.0,31.7,24.7,19.5,72,46,28,30.64,30.33,13,2,16,0.00
2013-4-22,54.2,43.0,28.0,37.4,32.6,25.9,94,69,40,30.67,30.49,16,3,20,0.00
2013-4-23,44.3,42.1,39.7,37.2,34.3,32.3,77,74,69,30.50,30.38,10,2,14,0.00
2013-4-24,74.3,63.5,34.6,56.0,51.3,33.0,94,66,47,30.15,29.81,14,4,17,0.00
2013-4-25,65.3,54.3,42.2,55.3,33.3,25.0,84,48,22,30.28,29.87,17,3,19,0.00
2013-4-26,65.5,53.3,39.6,38.2,32.1,25.8,76,47,24,30.43,30.28,12,2,13,0.00
2013-4-27,70.9,54.2,34.8,38.9,33.7,28.5,85,51,24,30.45,30.28,10,1,13,0.00
2013-4-28,72.8,56.4,35.2,47.1,37.6,27.9,92,54,30,30.33,30.19,13,2,14,0.00
2013-4-29,54.7,52.9,50.6,52.1,49.5,41.9,94,88,62,30.24,30.16,10,1,12,0.26
2013-4-30,68.7,56.0,41.8,52.7,43.8,27.0,95,68,26,30.34,30.20,13,1,13,0.05
2013-5-1,69.2,52.4,34.1,45.0,38.3,31.1,95,64,28,30.50,30.34,13,1,15,0.00
2013-5-2,74.8,55.8,36.3,48.8,41.7,35.0,96,65,29,30.49,30.33,9,1,12,0.00
2013-5-3,66.5,54.5,41.8,43.5,40.5,34.6,91,63,32,30.46,30.35,11,2,13,0.00
2013-5-4,70.5,53.5,36.1,47.3,41.3,34.8,96,68,35,30.39,30.23,11,1,14,0.00
2013-5-5,64.1,50.9,38.5,44.7,41.0,36.7,94,72,43,30.31,30.22,9,1,14,0.00
2013-5-6,69.9,55.1,39.9,55.3,48.2,37.8,94,79,56,30.27,30.15,10,1,11,0.00
2013-5-7,71.5,59.7,48.4,60.4,54.2,46.5,95,83,67,30.18,30.07,9,1,10,0.01
2013-5-8,70.0,60.1,53.4,63.8,58.0,52.0,96,93,79,30.09,29.94,7,1,9,2.10
2013-5-9,70.9,60.4,53.2,60.1,55.4,51.9,97,85,58,30.00,29.90,8,1,11,0.47
2013-5-10,83.5,68.8,53.5,62.8,57.1,52.0,97,70,38,30.01,29.89,8,1,11,0.20
2013-5-11,76.1,65.6,60.7,67.4,62.1,57.1,95,89,67,29.91,29.69,11,2,14,0.43
2013-5-12,68.3,59.9,46.8,57.4,42.6,27.0,87,56,28,29.97,29.67,16,2,18,0.01
2013-5-13,56.4,48.8,39.4,34.2,30.7,23.9,77,51,31,30.14,29.97,14,2,16,0.00
2013-5-14,62.7,49.2,36.5,36.3,30.4,21.3,85,54,22,30.17,30.04,14,2,15,0.00
2013-5-15,76.2,60.2,40.9,59.1,49.6,35.5,86,69,51,30.09,29.69,10,2,12,0.01
2013-5-16,82.7,67.6,54.6,65.8,58.5,50.1,95,75,49,29.84,29.71,7,1,9,0.05
2013-5-17,74.9,63.2,49.7,50.1,44.3,39.4,85,52,31,30.19,29.84,10,1,12,0.00
2013-5-18,66.5,57.8,47.7,56.6,51.9,44.4,90,81,63,30.30,30.19,7,1,7,0.01
2013-5-19,59.7,57.6,55.2,58.3,55.9,53.2,96,94,90,30.29,30.17,7,1,8,0.25
2013-5-20,80.0,67.1,57.1,70.0,63.0,56.0,97,87,67,30.18,29.96,5,1,7,0.01
2013-5-21,87.8,74.1,59.5,74.3,67.4,58.3,97,81,60,29.98,29.83,9,2,9,0.00
2013-5-22,88.2,74.6,65.6,75.0,68.4,63.9,96,82,53,29.91,29.80,8,1,9,0.00
2013-5-23,83.9,73.3,69.2,72.0,68.3,65.8,92,85,60,29.87,29.73,11,2,14,0.06
2013-5-24,69.3,54.8,43.9,66.2,51.6,40.9,96,89,75,30.00,29.69,14,2,21,0.58
2013-5-25,60.3,51.5,43.3,44.1,39.4,33.5,92,66,42,30.05,29.95,24,4,25,0.34
2013-5-26,69.5,57.2,43.1,41.7,37.3,32.7,84,50,27,30.21,30.02,19,2,20,0.00
2013-5-27,75.5,58.9,38.9,47.9,40.5,33.7,92,56,25,30.27,30.14,10,1,12,0.00
2013-5-28,63.5,56.7,47.0,58.0,52.8,44.7,96,87,68,30.23,30.12,4,0,5,0.28
2013-5-29,90.8,72.3,58.2,73.1,63.8,57.1,97,78,45,30.13,30.00,10,1,10,0.01
2013-5-30,94.5,80.9,67.2,71.8,66.4,61.5,92,65,35,30.13,30.05,7,1,15,0.00
2013-5-31,95.2,80.6,66.7,73.6,65.7,56.3,92,64,29,30.12,29.98,7,1,9,0.00
2013-6-1,93.0,80.7,68.0,72.6,67.6,61.2,91,67,39,30.01,29.88,11,2,11,0.00
2013-6-2,89.9,79.9,70.5,72.6,69.0,65.2,88,71,53,29.90,29.76,10,2,13,0.00
2013-6-3,83.5,72.3,63.0,70.2,66.6,57.3,95,83,55,29.88,29.76,9,1,11,0.60
2013-6-4,77.6,64.7,53.3,57.4,48.4,43.4,87,58,32,30.11,29.88,11,1,14,0.00
2013-6-5,78.1,63.1,45.1,56.0,49.6,42.6,94,65,39,30.21,30.10,7,1,8,0.00
2013-6-6,74.8,62.4,51.1,60.2,56.1,49.4,96,82,46,30.14,29.98,10,1,13,0.17
2013-6-7,63.8,61.8,60.1,62.6,60.4,58.5,96,95,93,29.99,29.59,12,1,14,3.91
2013-6-8,78.9,68.1,57.9,67.0,62.0,56.2,96,82,63,30.06,29.58,11,1,15,0.11
2013-6-9,85.0,71.8,57.2,65.2,60.1,55.3,95,70,41,30.17,30.06,6,1,8,0.00
2013-6-10,70.6,66.2,62.2,69.7,64.5,60.0,97,95,90,30.14,29.78,8,1,8,1.69
2013-6-11,82.8,74.6,67.0,69.5,66.5,61.0,96,77,59,29.78,29.64,11,2,14,0.09
2013-6-12,82.0,71.8,60.5,61.5,58.2,54.8,92,64,41,29.84,29.72,14,2,14,0.00
2013-6-13,72.8,63.6,57.7,67.7,60.7,55.9,95,90,81,29.84,29.40,9,1,18,1.05
2013-6-14,77.5,61.0,54.3,62.6,55.1,50.6,95,82,53,29.91,29.52,11,2,17,0.30
2013-6-15,83.3,68.8,54.6,62.9,57.0,52.3,96,70,35,30.02,29.90,11,1,11,0.01
2013-6-16,83.7,69.9,55.8,66.1,60.5,54.0,95,75,43,30.00,29.78,13,2,16,0.00
2013-6-17,88.4,74.1,64.2,71.1,65.9,60.8,95,77,49,29.92,29.83,10,1,13,0.01
2013-6-18,82.6,69.2,62.7,72.0,65.6,61.2,96,89,65,29.89,29.80,6,0,7,0.17
2013-6-19,79.6,67.5,58.2,62.2,55.5,47.4,95,70,36,30.16,29.87,10,1,13,0.00
2013-6-20,83.3,68.5,51.4,63.8,57.2,50.0,96,70,43,30.26,30.16,7,1,8,0.00
2013-6-21,85.0,70.5,54.7,62.5,56.4,51.8,92,64,38,30.31,30.22,7,1,7,0.00
2013-6-22,86.8,72.1,52.7,68.0,61.5,50.9,95,71,49,30.26,30.10,7,1,10,0.00
2013-6-23,90.2,75.3,60.8,73.3,67.5,58.9,95,78,52,30.19,30.03,7,1,10,0.01
2013-6-24,95.0,76.2,68.2,75.2,69.4,60.6,96,81,47,30.07,29.95,9,1,17,0.00
2013-6-25,93.2,79.3,66.4,74.5,68.6,64.0,93,72,46,29.99,29.80,9,1,14,0.00
2013-6-26,76.6,74.9,73.1,69.6,67.8,65.5,85,79,74,29.81,29.78,7,1,8,0.00
2013-6-27,90.4,78.3,69.4,75.1,70.9,67.6,96,80,56,29.81,29.54,3,1,18,2.63
2013-6-28,89.2,78.7,69.7,73.8,70.0,66.0,96,76,56,29.56,29.45,8,1,12,0.00
2013-6-29,88.5,76.3,65.4,71.0,67.2,63.9,96,76,48,29.68,29.47,8,1,9,0.00
2013-6-30,82.5,74.2,67.2,76.2,71.0,65.7,97,90,75,29.88,29.68,6,0,7,0.18
2013-7-1,79.6,75.1,71.4,75.5,72.5,69.6,95,91,85,30.02,29.87,11,1,12,1.09
2013-7-2,86.7,77.2,72.3,77.6,73.1,70.5,95,88,69,30.17,30.02,7,1,9,0.01
2013-7-3,87.7,77.1,70.1,78.1,73.1,68.6,96,88,67,30.23,30.15,7,0,7,0.18
2013-7-4,89.9,80.6,73.3,78.6,74.1,70.6,97,82,62,30.24,30.14,9,1,10,0.00
2013-7-5,92.7,81.9,71.5,78.8,73.6,70.2,96,78,55,30.20,30.08,10,1,10,0.00
2013-7-6,96.0,83.8,72.6,77.8,74.2,70.7,95,75,50,30.13,30.01,6,1,10,0.00
2013-7-7,94.5,83.0,71.9,78.6,73.7,68.2,95,75,55,30.06,29.92,10,1,13,0.01
2013-7-8,91.2,77.8,68.6,74.1,69.3,65.1,94,77,51,30.04,29.96,7,1,11,0.00
2013-7-9,90.5,77.8,68.4,75.6,71.0,66.6,96,81,58,30.06,29.97,7,1,12,0.45
2013-7-10,87.7,78.8,70.5,78.4,73.2,69.3,97,84,63,30.00,29.79,9,1,11,0.01
2013-7-11,87.8,78.4,73.1,73.6,71.1,62.5,93,79,57,29.90,29.78,6,0,6,0.00
2013-7-12,78.2,72.2,68.0,70.8,66.5,62.9,95,83,71,30.05,29.90,8,1,13,1.28
2013-7-13,85.1,74.9,68.8,78.6,72.4,67.4,97,92,77,30.27,30.05,8,1,10,0.84
2013-7-14,92.5,81.0,73.5,78.5,74.5,71.7,97,82,54,30.33,30.22,6,1,7,0.00
2013-7-15,97.5,82.9,70.4,81.1,74.9,69.2,96,78,50,30.24,30.11,5,1,8,0.02
2013-7-16,94.8,82.8,71.8,77.7,71.6,67.5,93,71,44,30.18,30.10,9,1,10,0.00
2013-7-17,97.5,83.4,70.5,77.1,72.5,67.7,97,73,42,30.17,30.03,5,0,5,0.00
2013-7-18,99.3,85.7,74.3,80.2,75.3,70.9,93,73,48,30.06,29.93,6,0,8,0.00
2013-7-19,97.3,87.1,77.9,82.7,77.9,75.1,92,75,52,29.95,29.77,9,1,11,0.00
2013-7-20,94.6,83.2,74.8,79.1,73.5,69.3,90,73,56,29.82,29.70,10,1,12,0.00
2013-7-21,90.0,79.0,70.6,74.5,70.4,67.3,95,77,52,29.92,29.80,6,1,7,0.00
2013-7-22,89.3,76.5,69.6,76.9,71.9,67.7,96,86,64,29.92,29.76,7,1,9,0.30
2013-7-23,87.9,77.3,70.7,76.1,72.4,69.2,96,85,64,29.76,29.55,7,1,8,0.85
2013-7-24,81.2,74.4,64.3,70.0,65.3,54.6,94,74,60,29.92,29.60,10,1,10,0.00
2013-7-25,68.8,64.9,61.1,59.8,56.2,52.3,84,74,63,30.03,29.90,9,1,10,0.00
2013-7-26,85.3,71.4,61.0,64.8,61.1,58.4,94,72,43,30.04,29.98,7,1,7,0.00
2013-7-27,61.0,60.6,59.8,59.6,59.1,58.3,96,95,94,30.04,30.03,0,0,0,0.00
2013-7-28,84.0,73.1,63.4,74.1,69.1,61.2,96,88,71,29.95,29.85,9,1,11,1.06
2013-7-29,85.0,73.1,62.5,69.6,63.5,54.8,97,75,39,30.10,29.93,8,1,11,0.05
2013-7-30,83.3,70.8,59.1,64.1,59.1,55.5,90,69,43,30.17,30.09,9,1,10,0.00
2013-7-31,84.5,71.1,56.3,66.3,61.6,54.9,96,75,44,30.16,30.02,5,0,6,0.00
2013-8-1,70.6,68.1,64.8,68.9,66.1,62.9,96,93,86,30.02,29.81,5,0,7,1.05
2013-8-2,85.8,73.8,63.3,69.9,65.9,62.4,97,78,50,29.91,29.78,7,0,8,0.01
2013-8-3,75.8,69.1,62.5,69.7,64.8,60.0,96,86,76,29.91,29.84,8,0,9,0.05
2013-8-4,79.3,69.3,58.9,64.1,59.2,53.3,97,73,42,29.98,29.84,13,1,15,0.01
2013-8-5,79.7,66.8,53.9,62.4,53.2,48.1,91,65,39,30.06,29.97,10,1,11,0.00
2013-8-6,83.5,72.3,53.7,64.2,60.5,52.6,96,69,40,30.10,30.02,8,1,8,0.00
2013-8-7,79.3,70.7,62.4,70.2,66.1,60.3,95,86,67,30.11,30.03,6,1,8,0.00
2013-8-8,88.3,76.0,68.6,77.2,71.7,67.1,96,87,63,30.04,29.95,8,1,11,0.36
2013-8-9,85.8,78.2,73.1,77.7,73.8,70.7,95,87,71,29.99,29.78,12,1,13,0.02
2013-8-10,85.6,75.6,65.1,73.2,67.6,62.7,95,78,55,30.03,29.85,6,1,8,0.00
2013-8-11,85.0,71.6,57.3,68.2,61.7,55.9,96,74,45,30.12,29.99,5,0,6,0.00
2013-8-12,85.8,73.1,66.8,69.7,66.8,63.5,96,83,50,30.02,29.90,5,0,6,0.20
2013-8-13,83.7,72.0,65.6,71.9,68.2,63.7,97,89,64,29.91,29.68,11,0,11,0.94
2013-8-14,73.8,63.8,54.1,64.0,54.1,49.4,93,72,48,30.05,29.75,13,2,16,0.00
2013-8-15,79.3,64.9,53.1,59.1,53.0,45.8,94,70,35,30.14,30.05,7,1,9,0.00
2013-8-16,81.7,66.1,50.4,63.8,55.5,49.2,97,73,35,30.20,30.12,6,0,7,0.00
2013-8-17,84.7,67.3,52.0,64.3,57.3,50.8,97,74,39,30.26,30.19,6,0,6,0.00
2013-8-18,77.6,66.9,59.3,65.0,61.4,57.3,96,84,56,30.24,30.12,7,0,8,0.03
2013-8-19,78.2,68.3,60.0,67.5,63.1,58.9,97,85,61,30.13,30.03,5,0,6,0.01
2013-8-20,89.8,74.8,62.1,71.1,66.3,60.8,97,78,46,30.12,30.04,5,0,5,0.01
2013-8-21,90.7,76.0,61.7,70.7,65.2,59.2,96,73,38,30.17,30.03,5,0,8,0.00
2013-8-22,82.0,73.3,69.3,75.2,70.5,67.2,95,91,77,30.04,29.86,8,0,15,1.34
2013-8-23,80.5,72.0,62.6,70.0,64.4,56.5,95,79,47,30.08,29.86,7,1,9,0.00
2013-8-24,81.5,68.2,56.1,61.2,55.4,49.7,95,67,36,30.34,30.08,12,1,12,0.00
2013-8-25,82.7,66.6,51.2,62.9,56.4,50.1,97,74,39,30.40,30.23,7,1,8,0.00
2013-8-26,85.2,71.5,60.0,70.8,63.2,56.3,90,76,56,30.24,29.90,8,1,11,0.00
2013-8-27,88.6,76.7,69.0,72.9,68.8,66.6,94,78,53,29.91,29.82,13,1,14,0.05
2013-8-28,78.3,71.9,65.5,73.7,70.0,64.3,97,94,79,29.87,29.81,3,0,3,0.42
2013-8-29,82.8,72.8,67.1,71.5,68.9,65.3,97,88,65,30.01,29.85,5,0,6,0.00
2013-8-30,85.8,74.0,67.1,73.4,69.1,65.3,95,85,65,30.01,29.84,7,1,10,0.00
2013-8-31,87.4,76.9,69.0,76.4,72.0,67.5,96,86,67,29.85,29.76,7,1,8,0.00
2013-9-1,90.4,76.2,69.9,77.1,71.8,68.7,97,87,63,29.83,29.74,7,0,10,0.08
2013-9-2,80.5,73.7,69.4,75.4,71.5,68.2,97,93,82,29.77,29.68,11,0,11,1.57
2013-9-3,82.8,73.0,63.3,72.1,66.0,58.2,97,81,50,29.88,29.69,9,1,10,0.01
2013-9-4,81.5,68.3,57.3,62.2,59.1,55.6,95,74,47,30.01,29.88,6,1,12,0.00
2013-9-5,78.8,66.3,52.2,64.7,56.2,47.8,93,73,38,30.13,29.93,12,1,13,0.00
2013-9-6,73.1,59.4,48.4,53.5,46.9,41.0,95,67,34,30.25,30.13,10,1,10,0.00
2013-9-7,80.1,61.9,44.3,61.5,51.9,43.2,97,75,38,30.14,29.90,10,0,10,0.00
2013-9-8,82.0,69.5,57.8,68.6,58.4,47.1,93,69,48,30.07,29.82,12,1,12,0.00
2013-9-9,76.9,62.3,45.7,60.4,53.3,44.3,96,75,50,30.22,30.07,10,1,11,0.00
2013-9-10,87.5,74.4,62.6,75.2,68.8,59.6,95,84,65,30.16,30.03,8,1,11,0.00
2013-9-11,94.4,80.9,71.1,79.9,74.1,69.5,96,82,57,30.10,29.95,9,1,10,0.00
2013-9-12,88.2,76.1,67.6,76.7,71.3,66.1,96,86,65,29.97,29.66,14,1,18,0.14
2013-9-13,78.2,67.5,56.6,66.7,60.2,50.8,97,79,54,29.86,29.63,16,2,16,0.11
2013-9-14,66.0,56.8,48.5,51.1,47.9,44.5,88,73,53,30.14,29.86,12,2,13,0.00
2013-9-15,73.9,57.5,43.1,57.3,48.9,41.4,96,76,44,30.23,30.08,7,1,8,0.00
2013-9-16,73.5,60.5,51.8,59.2,54.5,49.5,97,82,56,30.23,30.03,10,1,12,0.02
2013-9-17,67.8,54.3,42.3,49.4,42.7,38.2,95,68,37,30.43,30.23,10,1,14,0.00
2013-9-18,72.8,53.5,36.4,52.0,44.2,35.1,97,76,36,30.36,30.18,5,0,7,0.00
2013-9-19,77.3,58.5,41.7,57.4,49.8,40.5,97,77,41,30.20,30.06,7,0,10,0.00
2013-9-20,81.0,62.4,45.6,63.5,54.7,44.5,97,79,47,30.09,29.97,5,0,8,0.01
2013-9-21,81.8,64.3,47.6,66.5,57.3,46.5,97,81,43,30.00,29.65,12,1,14,0.67
2013-9-22,69.3,61.4,50.4,62.2,52.5,43.7,96,75,46,29.92,29.64,11,2,13,0.26
2013-9-23,66.1,55.3,44.6,47.4,43.9,41.2,91,67,47,30.05,29.92,13,2,15,0.00
2013-9-24,74.5,54.6,39.4,55.9,45.9,38.1,96,76,43,30.07,29.88,10,1,12,0.00
2013-9-25,74.9,56.4,41.2,55.7,47.3,39.6,96,76,42,29.96,29.87,6,0,7,0.00
2013-9-26,74.5,57.1,43.5,60.5,52.0,42.3,97,85,56,30.09,29.93,7,0,8,0.01
2013-9-27,71.5,59.4,51.0,55.4,52.6,49.6,96,80,50,30.26,30.09,6,0,7,0.00
2013-9-28,74.2,60.2,49.4,56.2,52.2,48.0,97,78,43,30.31,30.23,7,1,10,0.00
2013-9-29,74.3,57.4,43.7,58.5,51.2,42.6,97,82,51,30.23,30.06,6,0,11,0.00
2013-9-30,73.6,57.2,42.5,58.6,50.3,41.4,97,81,49,30.08,29.97,4,0,6,0.01
2013-10-1,82.1,64.4,50.9,62.9,56.3,49.3,96,78,49,30.01,29.90,8,1,9,0.00
2013-10-2,84.8,68.2,55.1,64.8,59.6,52.8,94,77,48,30.01,29.91,10,1,10,0.00
2013-10-3,80.5,66.1,52.7,65.4,59.2,51.6,97,81,50,30.11,30.00,4,0,4,0.01
2013-10-4,88.3,70.2,56.3,68.8,62.6,54.9,97,80,48,30.05,29.95,8,0,9,0.00
2013-10-5,82.4,70.6,61.7,69.2,65.1,60.3,96,84,62,30.07,29.99,6,1,8,0.00
2013-10-6,73.8,67.7,64.6,68.7,65.4,62.9,96,92,83,30.06,29.98,7,1,11,0.00
2013-10-7,80.2,65.7,54.5,72.5,63.1,48.8,97,92,73,29.99,29.72,18,2,22,0.47
2013-10-8,68.3,55.0,44.6,51.0,47.7,43.3,97,79,45,30.31,29.99,10,1,12,0.01
2013-10-9,61.9,54.4,47.3,51.3,47.1,42.1,89,77,63,30.37,30.25,14,1,14,0.00
2013-10-10,60.5,56.1,51.0,56.3,52.2,47.8,93,87,81,30.26,30.04,11,2,14,0.25
2013-10-11,64.8,61.5,57.9,60.8,57.8,54.4,94,88,83,30.06,29.98,13,2,15,0.11
2013-10-12,72.5,64.2,57.7,58.7,52.6,43.3,86,67,47,30.24,30.04,14,2,15,0.00
2013-10-13,68.1,59.6,50.7,54.7,51.8,48.5,94,76,56,30.36,30.24,12,2,14,0.00
2013-10-14,70.5,54.4,41.2,53.0,47.7,40.2,97,81,48,30.36,30.23,5,0,6,0.00
2013-10-15,74.3,54.5,41.5,57.3,45.4,32.8,97,76,26,30.26,30.11,7,0,9,0.00
2013-10-16,69.4,58.9,46.0,59.2,54.1,44.1,95,85,66,30.11,29.90,5,0,6,0.00
2013-10-17,74.8,65.4,60.4,63.5,61.1,58.4,95,86,64,29.91,29.67,6,0,6,0.03
2013-10-18,67.7,59.0,45.1,62.8,47.2,40.7,93,66,45,29.99,29.67,12,2,17,0.01
2013-10-19,65.0,51.3,38.0,54.0,45.1,36.4,96,81,53,29.99,29.76,6,0,7,0.04
2013-10-20,63.7,51.3,39.2,52.8,40.6,35.2,94,69,35,30.07,29.77,13,2,14,0.01
2013-10-21,68.6,49.8,34.0,46.7,39.0,32.7,96,72,34,30.16,29.99,9,1,12,0.00
2013-10-22,66.0,50.3,37.7,53.0,43.3,33.7,97,79,54,29.99,29.77,9,1,13,0.00
2013-10-23,58.7,45.3,36.2,42.0,37.1,32.9,93,74,52,29.83,29.61,12,1,18,0.00
2013-10-24,54.4,44.3,36.7,36.7,32.2,27.1,86,64,40,30.04,29.78,12,2,14,0.00
2013-10-25,54.2,42.3,33.0,35.8,31.8,28.0,91,68,43,30.26,30.05,11,2,15,0.00
2013-10-26,55.7,42.6,30.9,36.7,31.6,27.7,92,68,39,30.25,29.91,15,2,17,0.00
2013-10-27,58.4,48.9,42.0,36.6,33.6,30.8,69,56,40,30.14,29.88,12,2,14,0.00
2013-10-28,62.9,44.8,28.9,38.0,33.2,26.7,94,68,36,30.32,30.14,8,1,11,0.00
2013-10-29,60.4,44.8,34.3,39.2,35.2,30.3,93,71,42,30.42,30.31,7,0,11,0.00
2013-10-30,59.8,47.1,34.1,51.4,42.9,32.3,94,86,70,30.37,30.18,5,0,6,0.00
2013-10-31,67.8,59.3,52.0,62.0,55.5,49.5,94,88,76,30.23,29.79,7,1,11,0.05
2013-11-1,70.0,63.8,52.2,63.6,58.5,50.0,96,84,60,29.79,29.54,15,3,20,0.21
2013-11-2,69.0,55.5,45.8,54.4,46.3,38.9,97,74,43,29.78,29.61,10,1,13,0.00
2013-11-3,53.1,45.8,32.9,42.0,33.2,20.2,79,62,35,30.47,29.78,17,3,17,0.00
2013-11-4,47.4,35.6,28.0,24.9,20.6,16.1,87,57,30,30.68,30.47,13,1,15,0.00
2013-11-5,58.9,42.8,27.3,42.2,35.1,24.4,91,76,51,30.67,30.49,6,1,7,0.00
2013-11-6,67.2,51.0,36.7,52.9,44.7,35.1,96,81,54,30.51,30.06,9,1,10,0.00
2013-11-7,62.1,52.6,35.2,57.5,48.9,32.5,95,87,73,30.06,29.76,19,2,19,0.07
2013-11-8,50.3,41.7,33.9,36.6,30.0,26.6,89,64,42,30.26,29.96,17,2,17,0.00
2013-11-9,51.4,41.1,32.3,33.0,29.0,26.1,82,63,41,30.32,30.00,10,1,11,0.00
2013-11-10,60.4,48.0,37.1,38.0,32.6,28.0,84,58,40,30.09,29.86,22,4,25,0.00
2013-11-11,56.0,47.6,37.7,36.5,30.5,25.5,64,52,39,30.24,29.98,13,3,15,0.00
2013-11-12,49.7,37.3,26.9,37.7,24.7,16.6,85,61,45,30.34,29.94,18,3,20,0.01
2013-11-13,39.9,30.6,24.8,20.8,15.8,11.0,72,56,32,30.42,30.31,14,2,17,0.00
2013-11-14,53.4,38.6,27.7,22.8,18.8,13.9,73,49,21,30.31,30.19,14,2,16,0.00
2013-11-15,57.9,40.0,27.4,34.6,27.9,19.8,83,64,34,30.27,30.16,6,1,8,0.00
2013-11-16,60.9,48.1,35.8,46.4,41.3,30.5,95,78,52,30.35,30.25,8,1,11,0.02
2013-11-17,65.8,55.9,45.7,59.4,52.6,44.2,95,89,78,30.27,29.76,11,2,12,0.00
2013-11-18,65.8,59.6,49.5,61.6,41.0,27.3,93,54,27,29.81,29.60,17,4,22,0.11
2013-11-19,49.3,42.5,30.2,29.1,25.3,21.9,72,51,43,30.37,29.80,18,5,34,0.00
2013-11-20,45.9,33.0,21.2,22.9,16.8,7.5,81,55,21,30.64,30.37,10,1,10,0.00
2013-11-21,54.3,38.2,19.3,40.6,29.8,15.3,89,73,53,30.63,30.40,8,1,8,0.00
2013-11-22,59.9,50.8,45.5,50.7,46.1,40.1,94,84,70,30.41,29.92,10,1,12,0.03
2013-11-23,52.9,41.5,29.8,48.7,26.8,9.5,87,57,41,30.07,29.92,23,5,24,0.00
2013-11-24,29.7,24.9,21.1,9.4,2.9,-0.4,48,38,32,30.45,30.06,32,6,32,0.00
2013-11-25,36.6,27.2,16.9,17.5,12.7,5.2,77,55,41,30.54,30.37,10,2,12,0.00
2013-11-26,42.4,34.5,30.2,41.1,27.3,17.5,95,76,55,30.37,29.71,8,1,9,0.81
2013-11-27,62.4,44.9,32.5,60.7,41.1,20.7,97,87,59,29.81,29.36,17,4,25,1.98
2013-11-28,36.5,30.6,24.7,23.3,17.3,11.9,82,59,39,30.50,29.82,24,3,24,0.00
2013-11-29,39.3,29.6,20.5,25.1,20.5,16.5,91,70,47,30.76,30.49,14,1,15,0.00
2013-11-30,37.2,28.6,16.6,29.3,21.4,13.1,88,75,59,30.78,30.40,7,1,9,0.00
2013-12-1,50.2,38.1,25.7,34.7,29.9,24.0,94,74,52,30.40,30.03,6,0,7,0.00
2013-12-2,50.4,38.4,28.9,34.2,31.3,26.4,92,77,52,30.03,29.88,4,0,4,0.00
2013-12-3,53.8,40.2,30.1,39.0,33.7,27.8,94,79,51,30.02,29.89,7,0,7,0.00
2013-12-4,52.1,40.9,28.9,44.1,36.9,26.9,95,86,68,30.13,30.02,5,0,6,0.00
2013-12-5,57.5,52.1,46.8,55.4,50.5,44.0,97,94,89,30.12,29.93,6,0,7,0.03
2013-12-6,61.4,47.5,36.9,60.2,45.8,35.3,97,94,89,30.17,29.85,13,2,13,0.81
2013-12-7,39.7,34.8,29.0,35.3,28.8,19.4,95,79,63,30.54,30.09,16,2,16,0.11
2013-12-8,31.0,27.6,22.4,28.2,21.7,17.0,94,79,61,30.62,30.38,8,1,9,0.00
2013-12-9,35.6,33.0,29.7,34.2,31.7,28.2,95,95,94,30.37,30.00,9,1,9,0.32
2013-12-10,33.6,30.2,22.1,32.2,27.8,17.8,96,91,77,30.18,29.92,8,1,9,0.01
2013-12-11,32.5,25.9,17.9,21.1,17.6,13.3,86,71,56,30.38,30.18,11,2,16,0.00
2013-12-12,27.7,22.7,14.7,17.9,10.8,6.3,78,61,42,30.41,30.21,15,2,16,0.00
2013-12-13,36.0,25.7,14.3,19.1,13.7,6.2,78,61,45,30.36,30.18,14,2,17,0.00
2013-12-14,29.9,25.7,21.4,28.3,21.7,18.9,94,85,74,30.49,29.76,13,2,17,0.00
2013-12-15,39.2,33.2,27.7,33.6,28.1,21.4,95,82,61,29.88,29.55,14,2,17,0.07
2013-12-16,31.5,24.5,12.7,23.1,12.2,8.3,86,60,42,30.26,29.87,19,3,19,0.00
2013-12-17,28.9,23.1,17.5,26.2,19.9,13.1,92,88,79,30.25,29.97,5,0,6,0.00
2013-12-18,36.9,26.8,17.3,24.5,19.6,14.6,92,75,54,30.23,29.97,15,2,15,0.04
2013-12-19,45.2,31.5,17.9,30.7,24.5,14.9,90,76,53,30.23,30.06,10,1,11,0.09
2013-12-20,51.2,39.2,26.7,40.6,31.7,25.0,94,76,52,30.13,29.99,8,1,10,0.00
2013-12-21,63.7,50.9,37.6,55.4,46.7,35.4,96,86,68,30.02,29.90,7,1,10,0.00
2013-12-22,68.6,64.2,59.2,63.0,59.5,55.4,91,84,79,29.95,29.79,18,5,19,0.03
2013-12-23,60.4,54.2,40.8,59.3,51.3,32.4,96,90,72,30.17,29.88,18,2,23,0.52
2013-12-24,40.7,33.9,24.4,32.6,23.5,14.3,90,66,52,30.40,30.13,16,3,21,0.00
2013-12-25,28.4,23.3,15.9,18.0,11.7,7.2,74,61,48,30.57,30.40,15,1,16,0.00
2013-12-26,37.7,27.6,17.4,28.8,21.9,14.5,91,79,67,30.46,30.20,8,1,10,0.00
2013-12-27,42.4,30.5,22.6,24.5,20.8,17.7,87,68,44,30.41,30.30,14,1,14,0.00
2013-12-28,56.6,38.4,21.6,31.6,26.7,19.2,92,66,35,30.33,30.10,15,2,17,0.00
2013-12-29,43.6,40.5,36.1,42.2,35.4,27.9,95,83,66,30.11,29.44,14,2,14,1.12
2013-12-30,44.8,35.4,21.3,38.2,28.3,13.6,95,76,59,30.21,29.74,14,2,18,0.00
2013-12-31,32.0,24.9,16.1,27.1,16.3,10.6,88,70,56,30.34,30.10,10,2,22,0.00
2014-1-1,34.6,27.3,17.3,21.7,17.9,10.6,83,68,56,30.45,30.25,7,0,8,0.00
2014-1-2,31.9,26.2,16.9,24.1,21.3,14.5,91,82,70,30.25,29.68,14,3,16,0.00